Lid_Strength_Index
5 5 5 5 5 5 3 4 4 3 2 2 2 2 2 2 2 6 5 6 7 9 10 8 7 9 10 10 12 11 10 8 9 12 13 13 14 13 14 11 15 16 17 16 16 16 18 9 10 13 11 10 10 8
5 5 5 5 6 5 3 4 4 3 2 2 2 2 2 2 2 4 5 4 4 7 8 7 6 5 5 7 9 10 9 9 8 12 12 11 13 12 13 16 10 15 12 14 13 14 10 10 10 9 8 10 10 8
6 5 5 5 6 4 4 4 4 2 2 2 2 2 2 2 2 4 6 5 5 8 10 10 8 6 6 5 5 10 8 6 7 7 10 11 12 10 14 13 12 10 9 12 12 10 10 9 9 9 8 9 9 8
6 5 5 6 5 5 5 4 4 2 2 2 2 2 2 2 2 4 6 5 8 9 11 11 6 6 5 5 5 5 6 6 5 6 10 11 11 9 12 11 11 10 10 11 11 11 9 9 9 8 8 7 8 8
6 5 5 6 5 5 5 4 4 3 2 2 2 2 2 2 2 3 3 4 6 7 11 12 8 6 5 5 5 6 7 8 8 8 9 10 8 9 9 9 11 9 10 11 12 10 9 10 9 8 8 8 7 8
6 5 6 5 5 5 4 4 4 2 2 2 2 2 2 2 2 5 6 4 4 6 8 13 9 7 5 5 7 7 7 9 7 7 8 7 6 8 11 12 9 8 8 8 9 8 8 8 8 8 8 7 7 7
5 5 6 5 5 5 5 4 3 3 2 2 2 2 2 2 5 6 9 7 5 5 8 12 12 7 6 7 7 7 7 7 6 7 8 8 8 8 10 12 9 8 8 7 7 8 9 8 9 8 6 6 6 6
5 6 5 5 5 5 4 3 3 2 2 2 3 3 2 3 3 6 4 3 5 7 7 11 12 10 7 9 9 8 8 8 8 9 8 8 8 9 12 9 7 8 7 7 7 7 6 6 7 7 5 6 7 7
6 6 5 5 5 5 4 2 2 2 3 3 3 3 5 5 7 5 2 3 5 6 10 9 14 14 8 9 9 8 9 10 8 10 10 8 10 12 10 8 7 7 7 8 6 6 7 7 6 7 6 7 7 7
6 5 5 5 5 3 3 2 2 2 3 3 5 6 8 5 2 3 6 8 7 7 9 11 10 12 10 10 10 10 10 12 13 11 10 12 11 7 7 6 6 7 6 6 7 7 7 8 7 7 7 7 7 8
5 5 5 4 3 3 3 2 2 3 4 6 6 6 5 3 6 7 9 10 9 11 9 9 10 11 9 11 11 10 13 13 14 10 11 13 14 10 8 6 6 6 7 8 7 7 7 6 7 7 7 8 8 9
5 5 4 3 3 3 2 3 3 6 7 5 5 4 6 7 8 9 11 9 10 11 8 9 10 10 10 9 10 10 11 10 13 9 11 14 12 9 8 7 7 7 7 7 7 7 7 7 7 7 8 7 8 7
6 5 3 3 3 3 2 3 3 4 3 3 5 6 7 8 12 12 14 13 12 8 8 9 9 10 10 9 11 11 11 12 8 11 13 12 10 9 9 8 8 7 8 8 7 8 8 8 8 8 8 8 7 8
5 4 3 3 4 3 3 3 3 3 5 5 7 11 10 11 10 10 10 9 7 7 7 8 9 9 9 9 10 12 10 11 14 14 13 11 10 9 8 7 7 8 8 9 9 8 9 9 9 9 9 9 8 9
4 3 3 4 4 3 3 3 3 4 5 7 7 12 10 8 8 7 6 6 6 5 7 7 8 8 9 10 10 11 13 14 15 15 10 9 9 9 8 8 7 8 8 8 8 9 9 9 10 11 11 10 10 9
4 3 4 3 3 4 3 3 4 5 4 6 7 10 8 9 8 7 8 8 5 5 5 7 10 10 11 10 11 13 15 17 14 11 8 8 8 9 8 8 8 6 6 6 7 8 8 9 9 10 10 11 11 11
4 5 3 2 3 4 3 6 5 6 6 7 8 6 7 8 8 8 8 6 4 6 9 8 11 11 9 11 12 11 12 10 8 9 8 8 10 10 9 8 9 8 6 6 7 7 7 7 8 9 10 10 10 10
5 4 3 3 3 4 4 5 4 5 8 7 9 7 8 7 8 8 8 6 5 7 7 9 9 10 11 13 13 11 11 11 10 9 10 10 11 9 8 8 7 6 6 6 5 7 8 8 8 8 8 8 9 10
5 4 3 3 3 4 5 5 4 8 7 6 7 8 7 7 7 7 8 7 7 7 9 11 12 13 13 12 12 12 11 10 11 12 12 11 10 9 9 9 8 7 8 8 9 9 9 9 9 9 8 8 8 8
3 3 3 3 4 6 7 5 3 6 9 9 9 9 9 8 7 8 9 8 9 9 10 12 12 12 11 11 10 9 9 11 11 11 11 11 10 10 10 10 10 10 10 9 9 9 10 9 9 9 8 8 8 7
3 4 3 4 6 7 6 5 6 7 7 8 7 8 9 8 9 9 9 8 9 11 11 11 11 11 10 9 10 10 10 11 11 11 11 11 11 10 10 10 10 10 10 11 11 10 10 10 10 9 8 8 8 8
4 4 6 6 6 6 6 4 6 5 6 6 6 6 7 8 8 8 9 9 8 8 8 9 10 9 9 8 8 8 9 9 9 8 8 9 10 10 10 10 10 10 10 10 10 10 10 10 9 8 8 8 8 8
5 4 5 5 6 7 8 4 7 6 9 8 7 8 8 8 8 7 11 10 9 7 6 6 7 6 7 7 8 8 8 8 9 9 9 9 9 9 9 9 9 9 9 9 9 9 9 9 8 8 7 7 7 7
4 4 6 7 7 9 5 7 6 7 7 9 9 10 9 8 6 9 10 10 9 5 6 6 5 6 6 7 8 8 7 7 7 8 8 8 8 9 8 8 8 8 8 7 7 7 7 7 7 6 6 6 6 6
9 9 8 12 6 8 9 9 9 9 10 9 9 10 9 8 9 9 10 9 7 6 5 5 5 5 7 7 9 8 8 8 8 8 8 8 8 8 8 8 8 7 7 7 7 7 6 6 6 6 5 6 6 5
10 7 9 8 8 9 9 10 9 10 9 10 9 8 7 8 9 10 8 7 7 6 5 5 6 7 9 9 9 8 8 8 8 8 8 8 8 8 8 8 7 6 6 7 6 6 5 5 5 4 4 4 5 5
10 9 7 5 6 7 8 8 7 9 10 10 9 8 8 10 10 9 8 8 8 7 6 6 6 7 10 10 9 9 9 8 8 8 8 7 7 6 6 7 6 6 5 5 5 4 5 5 5 4 4 4 4 4
7 7 9 8 7 7 9 9 9 10 9 9 8 9 9 9 10 8 7 6 6 5 6 6 7 9 10 10 9 9 9 9 8 8 7 7 7 6 6 6 5 6 5 4 4 4 4 4 4 4 4 4 4 3
8 6 6 8 7 7 8 8 9 8 8 8 9 9 9 8 7 7 6 6 6 6 8 10 10 9 9 9 9 9 9 9 8 9 9 9 8 7 6 6 6 5 5 4 5 4 4 3 3 3 3 3 3 3
8 6 7 8 9 9 8 8 8 8 8 8 8 8 8 7 6 6 6 6 9 10 10 9 10 9 9 9 9 9 8 8 8 8 9 9 8 7 7 7 6 6 6 5 5 5 5 4 5 4 4 4 4 4
5 6 7 8 9 8 7 7 7 7 8 8 7 8 8 8 7 6 6 8 9 10 10 10 10 9 9 9 9 9 9 8 8 7 7 7 7 7 7 7 6 6 6 5 5 5 5 5 5 5 5 5 5 5
6 7 7 9 9 7 6 8 8 8 8 8 8 8 8 8 9 7 7 9 9 10 9 9 9 9 8 8 8 8 8 7 7 7 6 6 6 7 7 7 7 7 6 6 6 5 5 5 5 5 5 5 5 5
7 6 6 7 8 8 6 7 8 8 8 9 8 8 8 9 10 7 6 8 8 8 9 8 8 7 7 7 7 7 7 6 6 8 8 8 7 7 6 7 7 6 6 7 7 6 6 6 6 5 6 6 5 5